Location: ??
(31.9467°N, 34.8903°E)
Time: 16:59:50
(UTC+00:00)

CZ-2D R/B - Pass Details

Date: 29 October 2020
Orbit: 522 x 537 km, 97.4° (Epoch: 29 November)

Event Time Altitude Azimuth Distance (km) Brightness Sun altitude
Rises 15:41:42 0° 150° (SSE) 2,649 6.6 -10.9°
Reaches altitude 10° 15:43:55 10° 141° (SE) 1,762 5.6 -11.3°
Maximum altitude 15:47:23 35° 75° (ENE) 857 3.8 -12.1°
Drops below altitude 10° 15:50:53 10° 8° (N) 1,765 5.7 -12.8°
Sets 15:53:06 0° 360° (N) 2,656 6.7 -13.3°
